THORAD DELTA 1 DEB, 8164

Orbit data source: Space-Track

THORAD DELTA 1 DEB, 8164 is space debris in SSO originally from a launch on Fri, 15 Nov 1974 UTC launched from the Air Force Western Test Range (AFWTR). Debris objects in space refer to the collection of defunct objects orbiting the Earth. Examples of debris include non-operational satellites, rocket bodies, and fragments generated from explosions, collisions, or faulty payload assembly.

Loading next visibility...
Identifier
8164, 1974-089AE
Orbit
SSO
Country
Flag of USUS
Related business
Manufacturer
Unknown
Mission
Spacecraft
Bus & Motor
Unknown
Mass
Unknown
Launch date (UTC)
1974-11-15 (51 years ago)
Launch vehicle
Unknown
Launch site
Air Force Western Test Range (AFWTR)
Object type
Payload
Rocket body
Debris
Shape & HBR
Unknown
Radar Cross Section
Medium (>0.1 m² and <1 m²)

Expand to show TLE details & history
Last TLE update: 19 hours ago

TLE from 19 hours ago
0 THORAD DELTA 1 DEB
1 08164U 74089AE  25257.31974170 -.00000021  00000-0  16740-3 0  9995
2 08164 101.6030  29.0183 0121114 143.6633 231.2321 12.28968089280727
Epoch: 2025-09-14T07:40Z
TLE epoch observation values (Epoch: 2025-09-14T07:40:25.682Z)
Latitude
13.50684°
Longitude
-82.44251°
Altitude
1,616.401 km
Speed
7.036 km/s
True Right ascension
01h 44m 49s
True Declination
13° 26' 14"
Sunlit
Object was in full shadow at epoch
Visualization orbit readout
Latitude
Unknown
Longitude
Unknown
Altitude
Unknown
Speed
Unknown
Apparent Right ascension
Unknown
Apparent Declination
Unknown
Sunlit
N/A
Visualization observer readout
Local Sidereal Time
19:43:20
Azimuth
Unknown
Elevation
Unknown
Doppler factor
Unknown
Orbital elements
Apogee altitude
1,647.32 km
Perigee altitude
1,455.247 km
Semi-major axis
7,929.421 km
Eccentricity
0.01211
Inclination
101.603°
RAAN
29.0183°
Arg. of periapsis
143.6633°
True anomaly
230.16023°
Mean anomaly
231.2321°
Eccentric anomaly
230.69514°
Mean motion
3.07384 °/min
Orbital period
117.12 mins
BSTAR
0.0001674
Loading maneuver chart data...
Computing Atmospheric mass density...
Loading historical data...
Loading historical data...
Loading historical data...
Loading historical data...
Loading historical data...
Loading historical data...
Loading historical data...

Documentation

Showing up to 5 results
|